| time (UTC) | temp F | wind direction | speed MPH | gust MPH | rain 1hr in | rain 24hr in | rain mn in | humidity % | barometer mb |
| 20260507194622 | 65 | 200 | 1.0 | 5.0 | 0.00 | 0.07 | 0.07 | 46 | 998.3 |
| 20260507194347 | 65 | 24 | 2.0 | 4.0 | 0.00 | 0.07 | 0.07 | 42 | 998.4 |
| 20260507193610 | 65 | 30 | 1.0 | 4.0 | 0.00 | 0.07 | 0.07 | 41 | 998.4 |
| 20260507193104 | 65 | 63 | 1.0 | 4.0 | 0.00 | 0.07 | 0.07 | 41 | 998.7 |
| 20260507192557 | 65 | 27 | 1.0 | 3.0 | 0.00 | 0.07 | 0.07 | 46 | 998.8 |
| 20260507192052 | 65 | 29 | 1.0 | 4.0 | 0.00 | 0.07 | 0.07 | 48 | 998.9 |
| 20260507191546 | 65 | 349 | 2.0 | 7.0 | 0.00 | 0.07 | 0.07 | 48 | 998.9 |
| 20260507191040 | 65 | 226 | 2.0 | 7.0 | 0.00 | 0.07 | 0.07 | 44 | 998.9 |
| 20260507190534 | 65 | 216 | 2.0 | 5.0 | 0.00 | 0.07 | 0.07 | 49 | 999.0 |
| 20260507190029 | 65 | 216 | 2.0 | 6.0 | 0.00 | 0.07 | 0.07 | 48 | 999.2 |
| 20260507185529 | 64 | 216 | 2.0 | 6.0 | 0.00 | 0.07 | 0.07 | 48 | 999.0 |
| 20260507185029 | 64 | 204 | 2.0 | 6.0 | 0.00 | 0.07 | 0.07 | 46 | 999.0 |
| 20260507184531 | 64 | 217 | 2.0 | 6.0 | 0.00 | 0.07 | 0.07 | 47 | 999.1 |
| 20260507184030 | 64 | 219 | 2.0 | 6.0 | 0.00 | 0.07 | 0.07 | 51 | 999.1 |
| 20260507183529 | 63 | 228 | 2.0 | 6.0 | 0.00 | 0.07 | 0.07 | 51 | 999.2 |
| 20260507183029 | 62 | 200 | 1.0 | 4.0 | 0.00 | 0.07 | 0.07 | 51 | 999.2 |
| 20260507182529 | 62 | 207 | 1.0 | 5.0 | 0.00 | 0.07 | 0.07 | 54 | 999.3 |
| 20260507182030 | 62 | 207 | 1.0 | 5.0 | 0.00 | 0.07 | 0.07 | 54 | 999.4 |
| 20260507181524 | 61 | 94 | 1.0 | 4.0 | 0.00 | 0.07 | 0.07 | 54 | 999.5 |
| 20260507181026 | 61 | 92 | 1.0 | 4.0 | 0.00 | 0.07 | 0.07 | 53 | 999.6 |
| 20260507180525 | 61 | 49 | 1.0 | 3.0 | 0.00 | 0.07 | 0.07 | 53 | 999.6 |
| 20260507180025 | 61 | 46 | 1.0 | 3.0 | 0.00 | 0.07 | 0.07 | 54 | 999.8 |
| 20260507175525 | 61 | 31 | 2.0 | 3.0 | 0.00 | 0.07 | 0.07 | 56 | 999.8 |
| 20260507175024 | 61 | 130 | 2.0 | 4.0 | 0.00 | 0.07 | 0.07 | 55 | 999.8 |
| 20260507174525 | 61 | 247 | 1.0 | 4.0 | 0.00 | 0.07 | 0.07 | 58 | 999.9 |
| 20260507174024 | 60 | 101 | 1.0 | 4.0 | 0.00 | 0.07 | 0.07 | 54 | 1000.0 |
| 20260507173757 | 60 | 132 | 1.0 | 3.0 | 0.00 | 0.07 | 0.07 | 57 | 1000.1 |
| 20260507173018 | 60 | 101 | 1.0 | 4.0 | 0.00 | 0.07 | 0.07 | 57 | 1000.3 |
| 20260507172512 | 60 | 100 | 1.0 | 4.0 | 0.00 | 0.07 | 0.07 | 61 | 1000.4 |
| 20260507172007 | 59 | 138 | 1.0 | 4.0 | 0.00 | 0.07 | 0.07 | 62 | 1000.5 |
| 20260507171502 | 59 | 138 | 1.0 | 4.0 | 0.00 | 0.07 | 0.07 | 58 | 1000.6 |
| 20260507170954 | 58 | 138 | 2.0 | 4.0 | 0.00 | 0.07 | 0.07 | 54 | 1000.8 |
| 20260507170449 | 58 | 59 | 2.0 | 4.0 | 0.00 | 0.07 | 0.07 | 56 | 1000.7 |
| 20260507170213 | 58 | 84 | 2.0 | 4.0 | 0.00 | 0.07 | 0.07 | 55 | 1000.8 |
| 20260507165707 | 58 | 74 | 1.0 | 3.0 | 0.00 | 0.07 | 0.07 | 54 | 1001.0 |
| 20260507164931 | 57 | 68 | 1.0 | 3.0 | 0.00 | 0.07 | 0.07 | 61 | 1001.0 |
| 20260507164424 | 57 | 68 | 1.0 | 3.0 | 0.00 | 0.07 | 0.07 | 56 | 1001.0 |
| 20260507163920 | 56 | 12 | 1.0 | 2.0 | 0.00 | 0.07 | 0.07 | 57 | 1001.0 |
| 20260507163915 | 56 | 12 | 1.0 | 3.0 | 0.00 | 0.07 | 0.07 | 57 | 1001.2 |
| 20260507162908 | 56 | 12 | 0.0 | 3.0 | 0.00 | 0.07 | 0.07 | 57 | 1001.3 |
| 20260507162631 | 56 | 84 | 0.0 | 0.0 | 0.00 | 0.07 | 0.07 | 55 | 1001.3 |
| 20260507161854 | 56 | 84 | 0.0 | 2.0 | 0.00 | 0.07 | 0.07 | 56 | 1001.4 |
| 20260507161620 | 56 | 84 | 1.0 | 4.0 | 0.00 | 0.07 | 0.07 | 59 | 1001.5 |
| 20260507160843 | 56 | 84 | 2.0 | 4.0 | 0.00 | 0.07 | 0.07 | 60 | 1001.5 |
| 20260507160607 | 55 | 22 | 1.0 | 3.0 | 0.00 | 0.07 | 0.07 | 60 | 1001.6 |
| 20260507155831 | 55 | 22 | 1.0 | 3.0 | 0.00 | 0.07 | 0.07 | 60 | 1001.7 |
| 20260507155326 | 55 | 22 | 1.0 | 3.0 | 0.00 | 0.07 | 0.07 | 62 | 1001.6 |
| 20260507154818 | 55 | 22 | 0.0 | 3.0 | 0.00 | 0.07 | 0.07 | 62 | 1001.7 |
| 20260507154312 | 55 | 347 | 0.0 | 3.0 | 0.00 | 0.07 | 0.07 | 64 | 1001.8 |
| 20260507153807 | 55 | 16 | 1.0 | 3.0 | 0.00 | 0.07 | 0.07 | 64 | 1001.7 |
| 20260507153301 | 55 | 16 | 1.0 | 3.0 | 0.00 | 0.07 | 0.07 | 61 | 1001.9 |
| 20260507152756 | 55 | 16 | 1.0 | 3.0 | 0.00 | 0.07 | 0.07 | 63 | 1001.9 |
| 20260507152248 | 54 | 16 | 0.0 | 3.0 | 0.00 | 0.07 | 0.07 | 68 | 1001.9 |
| 20260507151742 | 54 | 79 | 0.0 | 1.0 | 0.00 | 0.07 | 0.07 | 68 | 1001.9 |
| 20260507151236 | 54 | 79 | 1.0 | 3.0 | 0.00 | 0.08 | 0.07 | 70 | 1001.9 |
| 20260507150731 | 54 | 79 | 1.0 | 3.0 | 0.00 | 0.08 | 0.07 | 71 | 1002.0 |
| 20260507150225 | 53 | 80 | 1.0 | 3.0 | 0.00 | 0.08 | 0.07 | 73 | 1002.0 |
| 20260507145719 | 53 | 321 | 0.0 | 2.0 | 0.00 | 0.09 | 0.07 | 74 | 1002.1 |
| 20260507145212 | 53 | 321 | 0.0 | 2.0 | 0.00 | 0.09 | 0.07 | 77 | 1002.2 |
| 20260507144940 | 52 | 321 | 0.0 | 2.0 | 0.00 | 0.09 | 0.07 | 77 | 1002.3 |
| 20260507144202 | 52 | 321 | 0.0 | 2.0 | 0.00 | 0.10 | 0.07 | 77 | 1002.2 |
| 20260507143655 | 52 | 319 | 0.0 | 0.0 | 0.00 | 0.10 | 0.07 | 79 | 1002.2 |
| 20260507143148 | 51 | 319 | 0.0 | 0.0 | 0.00 | 0.10 | 0.07 | 82 | 1002.3 |
| 20260507142643 | 51 | 319 | 0.0 | 0.0 | 0.00 | 0.10 | 0.07 | 84 | 1002.5 |
| 20260507142136 | 51 | 319 | 0.0 | 0.0 | 0.00 | 0.10 | 0.07 | 86 | 1002.4 |
| 20260507141902 | 51 | 319 | 0.0 | 0.0 | 0.00 | 0.10 | 0.07 | 83 | 1002.4 |
| 20260507141126 | 51 | 319 | 0.0 | 0.0 | 0.00 | 0.11 | 0.07 | 81 | 1002.4 |
| 20260507140619 | 51 | 319 | 0.0 | 0.0 | 0.00 | 0.11 | 0.07 | 83 | 1002.5 |
| 20260507140114 | 51 | 319 | 0.0 | 0.0 | 0.00 | 0.12 | 0.07 | 85 | 1002.6 |
| 20260507135606 | 51 | 319 | 0.0 | 0.0 | 0.00 | 0.13 | 0.07 | 85 | 1002.6 |
| 20260507135101 | 51 | 319 | 0.0 | 0.0 | 0.00 | 0.14 | 0.07 | 82 | 1002.7 |
| 20260507134827 | 51 | 319 | 0.0 | 0.0 | 0.00 | 0.14 | 0.07 | 86 | 1002.7 |
| 20260507134049 | 51 | 319 | 0.0 | 0.0 | 0.00 | 0.15 | 0.07 | 85 | 1002.7 |
| 20260507133813 | 51 | 319 | 0.0 | 1.0 | 0.00 | 0.16 | 0.07 | 89 | 1002.6 |
| 20260507133038 | 51 | 319 | 0.0 | 2.0 | 0.00 | 0.17 | 0.07 | 88 | 1002.6 |
| 20260507132531 | 51 | 319 | 0.0 | 2.0 | 0.00 | 0.18 | 0.07 | 90 | 1002.8 |
| 20260507132025 | 51 | 319 | 0.0 | 0.0 | 0.00 | 0.20 | 0.07 | 89 | 1002.7 |
| 20260507131526 | 51 | 319 | 0.0 | 1.0 | 0.00 | 0.22 | 0.07 | 90 | 1002.7 |
| 20260507131023 | 51 | 319 | 0.0 | 1.0 | 0.00 | 0.23 | 0.07 | 89 | 1002.6 |
| 20260507130520 | 51 | 319 | 0.0 | 0.0 | 0.00 | 0.23 | 0.07 | 90 | 1002.6 |
| 20260507130018 | 50 | 319 | 0.0 | 0.0 | 0.00 | 0.23 | 0.07 | 92 | 1002.6 |
| 20260507125515 | 50 | 319 | 0.0 | 0.0 | 0.00 | 0.23 | 0.07 | 92 | 1002.8 |
| 20260507125014 | 50 | 319 | 0.0 | 0.0 | 0.00 | 0.24 | 0.07 | 92 | 1002.8 |
| 20260507124512 | 50 | 319 | 0.0 | 0.0 | 0.00 | 0.24 | 0.07 | 92 | 1002.8 |
| 20260507124012 | 50 | 319 | 0.0 | 0.0 | 0.00 | 0.24 | 0.07 | 92 | 1002.7 |
| 20260507123739 | 50 | 319 | 0.0 | 0.0 | 0.00 | 0.24 | 0.07 | 92 | 1002.7 |
| 20260507123008 | 50 | 319 | 0.0 | 0.0 | 0.00 | 0.24 | 0.07 | 92 | 1002.6 |
| 20260507122504 | 50 | 319 | 0.0 | 0.0 | 0.00 | 0.24 | 0.07 | 92 | 1002.7 |
| 20260507122003 | 50 | 319 | 0.0 | 0.0 | 0.00 | 0.24 | 0.07 | 91 | 1002.7 |
| 20260507121502 | 51 | 319 | 0.0 | 1.0 | 0.00 | 0.24 | 0.07 | 92 | 1002.7 |
| 20260507121001 | 51 | 319 | 0.0 | 1.0 | 0.00 | 0.24 | 0.07 | 92 | 1002.6 |
| 20260507120501 | 51 | 61 | 0.0 | 0.0 | 0.00 | 0.24 | 0.07 | 92 | 1002.6 |
| 20260507120233 | 51 | 61 | 0.0 | 0.0 | 0.00 | 0.24 | 0.07 | 93 | 1002.6 |
| 20260507115501 | 51 | 61 | 0.0 | 0.0 | 0.00 | 0.24 | 0.07 | 93 | 1002.6 |
| 20260507115000 | 51 | 61 | 0.0 | 0.0 | 0.00 | 0.24 | 0.07 | 94 | 1002.4 |
| 20260507114458 | 51 | 61 | 0.0 | 0.0 | 0.00 | 0.24 | 0.07 | 94 | 1002.3 |
| 20260507113955 | 51 | 61 | 0.0 | 0.0 | 0.00 | 0.24 | 0.07 | 94 | 1002.3 |
| 20260507113457 | 51 | 61 | 0.0 | 0.0 | 0.00 | 0.24 | 0.07 | 94 | 1002.3 |
| 20260507112957 | 51 | 61 | 0.0 | 0.0 | 0.00 | 0.24 | 0.07 | 94 | 1002.2 |
| 20260507112458 | 51 | 61 | 0.0 | 0.0 | 0.00 | 0.24 | 0.07 | 94 | 1002.2 |
| 20260507112226 | 51 | 61 | 0.0 | 0.0 | 0.00 | 0.24 | 0.07 | 94 | 1002.2 |
| 20260507111457 | 51 | 61 | 0.0 | 0.0 | 0.00 | 0.24 | 0.07 | 94 | 1002.3 |
| 20260507110955 | 51 | 61 | 0.0 | 0.0 | 0.00 | 0.24 | 0.07 | 94 | 1002.3 |
| 20260507110456 | 51 | 61 | 0.0 | 0.0 | 0.00 | 0.24 | 0.07 | 94 | 1002.3 |
| 20260507110000 | 52 | 61 | 0.0 | 0.0 | 0.00 | 0.24 | 0.07 | 94 | 1002.3 |
| 20260507105955 | 51 | 61 | 0.0 | 0.0 | 0.00 | 0.24 | 0.07 | 94 | 1002.3 |
| 20260507104957 | 52 | 61 | 0.0 | 0.0 | 0.00 | 0.24 | 0.07 | 94 | 1002.2 |
| 20260507104456 | 52 | 61 | 0.0 | 0.0 | 0.00 | 0.24 | 0.07 | 94 | 1002.1 |
| 20260507103956 | 52 | 61 | 0.0 | 0.0 | 0.00 | 0.24 | 0.07 | 94 | 1001.9 |
| 20260507103457 | 52 | 61 | 0.0 | 0.0 | 0.00 | 0.24 | 0.07 | 94 | 1001.9 |
| 20260507102956 | 52 | 61 | 0.0 | 0.0 | 0.00 | 0.24 | 0.07 | 94 | 1002.0 |
| 20260507102728 | 53 | 61 | 0.0 | 0.0 | 0.00 | 0.24 | 0.07 | 94 | 1001.9 |
| 20260507101956 | 53 | 61 | 0.0 | 0.0 | 0.00 | 0.24 | 0.07 | 94 | 1001.7 |
| 20260507101450 | 53 | 61 | 0.0 | 0.0 | 0.00 | 0.24 | 0.07 | 94 | 1001.8 |
| 20260507100944 | 53 | 61 | 0.0 | 0.0 | 0.00 | 0.24 | 0.07 | 94 | 1001.6 |
| 20260507100439 | 53 | 61 | 0.0 | 0.0 | 0.00 | 0.24 | 0.07 | 94 | 1001.8 |
| 20260507095932 | 53 | 61 | 0.0 | 0.0 | 0.00 | 0.24 | 0.07 | 94 | 1001.7 |
| 20260507095426 | 53 | 61 | 0.0 | 0.0 | 0.00 | 0.24 | 0.07 | 94 | 1001.6 |
| 20260507094921 | 53 | 61 | 0.0 | 0.0 | 0.00 | 0.24 | 0.07 | 94 | 1001.7 |
| 20260507094413 | 53 | 61 | 0.0 | 0.0 | 0.00 | 0.24 | 0.07 | 94 | 1001.7 |
| 20260507093908 | 53 | 61 | 0.0 | 0.0 | 0.00 | 0.24 | 0.07 | 94 | 1001.6 |
| 20260507093401 | 53 | 61 | 0.0 | 0.0 | 0.00 | 0.24 | 0.07 | 94 | 1001.6 |
| 20260507092856 | 53 | 61 | 0.0 | 0.0 | 0.00 | 0.24 | 0.07 | 94 | 1001.5 |
| 20260507092351 | 53 | 61 | 0.0 | 0.0 | 0.00 | 0.24 | 0.07 | 94 | 1001.5 |
| 20260507091844 | 53 | 61 | 0.0 | 0.0 | 0.00 | 0.24 | 0.07 | 94 | 1001.4 |
| 20260507091610 | 53 | 61 | 0.0 | 0.0 | 0.00 | 0.24 | 0.07 | 94 | 1001.4 |
| 20260507090832 | 53 | 61 | 0.0 | 0.0 | 0.00 | 0.24 | 0.07 | 94 | 1001.4 |
| 20260507090557 | 53 | 61 | 0.0 | 0.0 | 0.00 | 0.24 | 0.07 | 94 | 1001.5 |
| 20260507085819 | 53 | 61 | 0.0 | 0.0 | 0.00 | 0.24 | 0.07 | 94 | 1001.5 |
| 20260507085314 | 53 | 61 | 0.0 | 0.0 | 0.00 | 0.24 | 0.07 | 94 | 1001.6 |
| 20260507085039 | 53 | 61 | 0.0 | 0.0 | 0.00 | 0.24 | 0.07 | 94 | 1001.6 |
| 20260507084534 | 53 | 61 | 0.0 | 0.0 | 0.00 | 0.24 | 0.07 | 94 | 1001.6 |
| 20260507084028 | 53 | 61 | 0.0 | 0.0 | 0.00 | 0.24 | 0.07 | 94 | 1001.4 |
| 20260507083250 | 53 | 61 | 0.0 | 0.0 | 0.00 | 0.24 | 0.07 | 94 | 1001.4 |
| 20260507082744 | 53 | 61 | 0.0 | 0.0 | 0.00 | 0.24 | 0.07 | 94 | 1001.5 |
| 20260507082238 | 53 | 61 | 0.0 | 0.0 | 0.00 | 0.24 | 0.07 | 94 | 1001.3 |
| 20260507081731 | 53 | 61 | 0.0 | 0.0 | 0.00 | 0.24 | 0.07 | 94 | 1001.3 |
| 20260507081226 | 53 | 61 | 0.0 | 0.0 | 0.00 | 0.24 | 0.07 | 94 | 1001.1 |
| 20260507080720 | 53 | 61 | 0.0 | 0.0 | 0.00 | 0.24 | 0.07 | 94 | 1000.8 |
| 20260507080213 | 53 | 61 | 0.0 | 0.0 | 0.00 | 0.24 | 0.07 | 94 | 1000.8 |
| 20260507075707 | 54 | 61 | 0.0 | 0.0 | 0.00 | 0.24 | 0.07 | 94 | 1000.9 |
| 20260507075201 | 54 | 61 | 0.0 | 0.0 | 0.00 | 0.24 | 0.07 | 94 | 1000.8 |
| 20260507074655 | 54 | 61 | 0.0 | 0.0 | 0.00 | 0.24 | 0.07 | 93 | 1000.9 |
| 20260507074151 | 54 | 61 | 0.0 | 0.0 | 0.00 | 0.24 | 0.07 | 94 | 1000.7 |
| 20260507073643 | 54 | 61 | 0.0 | 0.0 | 0.00 | 0.24 | 0.07 | 93 | 1000.8 |
| 20260507073138 | 54 | 61 | 0.0 | 0.0 | 0.01 | 0.24 | 0.07 | 93 | 1000.6 |
| 20260507072631 | 54 | 61 | 0.0 | 0.0 | 0.01 | 0.24 | 0.07 | 93 | 1000.6 |
| 20260507072125 | 54 | 61 | 0.0 | 0.0 | 0.01 | 0.24 | 0.07 | 93 | 1000.6 |
| 20260507071620 | 54 | 61 | 0.0 | 0.0 | 0.01 | 0.24 | 0.07 | 93 | 1000.8 |
| 20260507071114 | 54 | 61 | 0.0 | 0.0 | 0.01 | 0.24 | 0.07 | 93 | 1000.8 |
| 20260507070608 | 54 | 61 | 0.0 | 0.0 | 0.01 | 0.24 | 0.07 | 93 | 1000.6 |
| 20260507065556 | 54 | 61 | 0.0 | 0.0 | 0.01 | 0.24 | 0.07 | 93 | 1000.7 |
| 20260507065049 | 55 | 61 | 0.0 | 0.0 | 0.01 | 0.24 | 0.07 | 93 | 1000.7 |
| 20260507064544 | 55 | 61 | 0.0 | 0.0 | 0.01 | 0.24 | 0.07 | 93 | 1000.9 |
| 20260507064038 | 55 | 61 | 0.0 | 0.0 | 0.01 | 0.24 | 0.07 | 93 | 1000.9 |
| 20260507063532 | 55 | 61 | 0.0 | 0.0 | 0.01 | 0.24 | 0.07 | 93 | 1000.7 |
| 20260507063026 | 55 | 61 | 0.0 | 0.0 | 0.00 | 0.23 | 0.06 | 93 | 1000.9 |
| 20260507062520 | 55 | 61 | 0.0 | 0.0 | 0.00 | 0.23 | 0.06 | 93 | 1000.9 |
| 20260507062014 | 55 | 61 | 0.0 | 0.0 | 0.00 | 0.23 | 0.06 | 93 | 1001.0 |
| 20260507061507 | 55 | 61 | 0.0 | 0.0 | 0.00 | 0.23 | 0.06 | 93 | 1000.5 |
| 20260507061233 | 55 | 61 | 0.0 | 0.0 | 0.01 | 0.23 | 0.06 | 93 | 1000.6 |
| 20260507060728 | 55 | 61 | 0.0 | 0.0 | 0.01 | 0.23 | 0.06 | 93 | 1000.7 |
| 20260507055950 | 56 | 61 | 0.0 | 0.0 | 0.01 | 0.23 | 0.06 | 93 | 1000.7 |
| 20260507055445 | 56 | 61 | 0.0 | 0.0 | 0.01 | 0.23 | 0.06 | 93 | 1001.1 |
| 20260507054938 | 56 | 61 | 0.0 | 0.0 | 0.02 | 0.23 | 0.06 | 93 | 1000.8 |
| 20260507054432 | 56 | 61 | 0.0 | 0.0 | 0.05 | 0.23 | 0.06 | 92 | 1000.7 |
| 20260507053926 | 56 | 61 | 0.0 | 0.0 | 0.06 | 0.23 | 0.06 | 92 | 1000.9 |
| 20260507053421 | 56 | 61 | 0.0 | 1.0 | 0.06 | 0.23 | 0.06 | 92 | 1000.9 |
| 20260507052913 | 56 | 61 | 0.0 | 1.0 | 0.06 | 0.23 | 0.06 | 92 | 1001.0 |
| 20260507052408 | 56 | 61 | 0.0 | 1.0 | 0.06 | 0.23 | 0.06 | 91 | 1000.8 |
| 20260507051904 | 56 | 61 | 0.0 | 1.0 | 0.06 | 0.23 | 0.06 | 91 | 1000.8 |
| 20260507051858 | 56 | 61 | 0.0 | 1.0 | 0.06 | 0.23 | 0.06 | 91 | 1000.8 |
| 20260507050850 | 57 | 61 | 0.0 | 0.0 | 0.05 | 0.22 | 0.05 | 90 | 1000.6 |
| 20260507050345 | 57 | 61 | 0.0 | 2.0 | 0.05 | 0.22 | 0.05 | 89 | 1000.8 |
| 20260507045838 | 57 | 61 | 0.0 | 2.0 | 0.05 | 0.22 | 0.05 | 89 | 1000.8 |
| 20260507045331 | 58 | 61 | 0.0 | 2.0 | 0.05 | 0.22 | 0.05 | 88 | 1001.1 |
| 20260507044827 | 58 | 61 | 0.0 | 2.0 | 0.04 | 0.21 | 0.04 | 87 | 1001.4 |
| 20260507044321 | 59 | 61 | 0.0 | 2.0 | 0.00 | 0.17 | 0.00 | 86 | 1001.1 |
| 20260507043814 | 59 | 61 | 0.0 | 2.0 | 0.00 | 0.17 | 0.00 | 84 | 1001.1 |
| 20260507043308 | 59 | 61 | 1.0 | 4.0 | 0.00 | 0.17 | 0.00 | 81 | 1000.7 |
| 20260507043303 | 60 | 59 | 1.0 | 5.0 | 0.00 | 0.17 | 0.00 | 81 | 1000.6 |
| 20260507042255 | 60 | 18 | 1.0 | 5.0 | 0.00 | 0.17 | 0.00 | 81 | 1000.9 |
| 20260507042024 | 60 | 11 | 1.0 | 2.0 | 0.00 | 0.17 | 0.00 | 81 | 1000.9 |
| 20260507041253 | 61 | 11 | 1.0 | 2.0 | 0.00 | 0.17 | 0.00 | 81 | 1001.2 |
| 20260507040752 | 61 | 11 | 0.0 | 2.0 | 0.00 | 0.17 | 0.00 | 81 | 1001.1 |
| 20260507040254 | 61 | 11 | 0.0 | 2.0 | 0.00 | 0.17 | 0.00 | 81 | 1000.6 |
| 20260507040024 | 61 | 11 | 0.0 | 2.0 | 0.00 | 0.17 | 0.17 | 81 | 1000.6 |
| 20260507035254 | 61 | 11 | 0.0 | 1.0 | 0.00 | 0.17 | 0.17 | 82 | 1000.5 |
| 20260507034754 | 61 | 11 | 0.0 | 1.0 | 0.00 | 0.17 | 0.17 | 82 | 1000.3 |
| 20260507034523 | 62 | 11 | 0.0 | 1.0 | 0.00 | 0.17 | 0.17 | 82 | 1000.1 |
| 20260507033755 | 62 | 11 | 0.0 | 2.0 | 0.00 | 0.17 | 0.17 | 81 | 1000.1 |
| 20260507033252 | 62 | 11 | 0.0 | 2.0 | 0.00 | 0.17 | 0.17 | 80 | 1000.4 |
| 20260507032752 | 62 | 11 | 0.0 | 3.0 | 0.00 | 0.17 | 0.17 | 80 | 1000.5 |
| 20260507032254 | 62 | 11 | 0.0 | 3.0 | 0.00 | 0.17 | 0.17 | 79 | 1000.2 |
| 20260507031754 | 62 | 28 | 1.0 | 3.0 | 0.00 | 0.17 | 0.17 | 79 | 1000.4 |
| 20260507031254 | 62 | 28 | 1.0 | 2.0 | 0.00 | 0.17 | 0.17 | 79 | 1000.5 |
| 20260507030753 | 62 | 26 | 1.0 | 2.0 | 0.00 | 0.17 | 0.17 | 79 | 1000.2 |
| 20260507030253 | 63 | 26 | 1.0 | 2.0 | 0.00 | 0.17 | 0.17 | 80 | 1000.2 |
| 20260507030025 | 63 | 5 | 1.0 | 3.0 | 0.00 | 0.17 | 0.17 | 80 | 1000.0 |
| 20260507025251 | 63 | 5 | 1.0 | 3.0 | 0.00 | 0.17 | 0.17 | 79 | 999.7 |
| 20260507024746 | 63 | 57 | 0.0 | 2.0 | 0.00 | 0.17 | 0.17 | 79 | 999.6 |
| 20260507024239 | 63 | 57 | 0.0 | 2.0 | 0.00 | 0.17 | 0.17 | 79 | 999.9 |
| 20260507023732 | 63 | 57 | 0.0 | 2.0 | 0.00 | 0.17 | 0.17 | 79 | 999.9 |
| 20260507023457 | 64 | 57 | 1.0 | 2.0 | 0.00 | 0.17 | 0.17 | 79 | 999.9 |
| 20260507022721 | 64 | 57 | 1.0 | 5.0 | 0.00 | 0.17 | 0.17 | 79 | 999.6 |
| 20260507022215 | 64 | 65 | 1.0 | 5.0 | 0.00 | 0.17 | 0.17 | 79 | 999.6 |
| 20260507021710 | 64 | 66 | 1.0 | 3.0 | 0.00 | 0.17 | 0.17 | 80 | 999.6 |
| 20260507021705 | 64 | 32 | 0.0 | 2.0 | 0.00 | 0.17 | 0.17 | 81 | 999.8 |
| 20260507020658 | 65 | 32 | 1.0 | 3.0 | 0.00 | 0.17 | 0.17 | 81 | 999.7 |
| 20260507020152 | 65 | 32 | 1.0 | 3.0 | 0.00 | 0.17 | 0.17 | 82 | 999.4 |
| 20260507015646 | 65 | 32 | 1.0 | 3.0 | 0.00 | 0.17 | 0.17 | 82 | 999.3 |
| 20260507015138 | 65 | 16 | 1.0 | 2.0 | 0.00 | 0.17 | 0.17 | 82 | 999.2 |
| 20260507014633 | 65 | 35 | 0.0 | 3.0 | 0.00 | 0.17 | 0.17 | 83 | 999.2 |
| 20260507014127 | 66 | 35 | 1.0 | 2.0 | 0.00 | 0.17 | 0.17 | 82 | 999.3 |
| 20260507013620 | 66 | 35 | 1.0 | 3.0 | 0.00 | 0.17 | 0.17 | 82 | 999.3 |
| 20260507013115 | 66 | 37 | 1.0 | 3.0 | 0.00 | 0.17 | 0.17 | 82 | 999.5 |
| 20260507012608 | 66 | 38 | 1.0 | 3.0 | 0.00 | 0.17 | 0.17 | 83 | 999.6 |
| 20260507012103 | 67 | 30 | 1.0 | 3.0 | 0.00 | 0.17 | 0.17 | 83 | 999.7 |
| 20260507011557 | 67 | 15 | 1.0 | 4.0 | 0.00 | 0.17 | 0.17 | 84 | 999.5 |
| 20260507011051 | 67 | 15 | 1.0 | 4.0 | 0.00 | 0.17 | 0.17 | 84 | 999.4 |
| 20260507010546 | 67 | 19 | 0.0 | 2.0 | 0.00 | 0.17 | 0.17 | 85 | 999.4 |
| 20260507010309 | 67 | 19 | 0.0 | 2.0 | 0.00 | 0.17 | 0.17 | 85 | 999.3 |
| 20260507005533 | 67 | 19 | 1.0 | 3.0 | 0.00 | 0.17 | 0.17 | 85 | 999.3 |
| 20260507005026 | 67 | 320 | 0.0 | 3.0 | 0.00 | 0.17 | 0.17 | 87 | 999.5 |
| 20260507004522 | 68 | 225 | 0.0 | 0.0 | 0.00 | 0.17 | 0.17 | 87 | 999.2 |
| 20260507004014 | 68 | 225 | 0.0 | 0.0 | 0.00 | 0.17 | 0.17 | 86 | 999.2 |
| 20260507003509 | 68 | 225 | 0.0 | 0.0 | 0.00 | 0.17 | 0.17 | 86 | 999.0 |
| 20260507003002 | 68 | 225 | 0.0 | 0.0 | 0.00 | 0.17 | 0.17 | 86 | 998.8 |
| 20260507002728 | 68 | 225 | 0.0 | 0.0 | 0.00 | 0.17 | 0.17 | 85 | 998.9 |
| 20260507001952 | 68 | 225 | 0.0 | 0.0 | 0.00 | 0.17 | 0.17 | 85 | 998.9 |
| 20260507001445 | 68 | 225 | 0.0 | 0.0 | 0.00 | 0.17 | 0.17 | 84 | 998.8 |
| 20260507001211 | 68 | 225 | 0.0 | 0.0 | 0.00 | 0.17 | 0.17 | 84 | 998.6 |
| 20260507000435 | 68 | 225 | 0.0 | 0.0 | 0.00 | 0.17 | 0.17 | 83 | 998.4 |
| 20260506235926 | 69 | 225 | 0.0 | 0.0 | 0.00 | 0.17 | 0.17 | 83 | 998.4 |
| 20260506235420 | 69 | 225 | 0.0 | 0.0 | 0.00 | 0.17 | 0.17 | 83 | 998.6 |
| 20260506234915 | 69 | 225 | 0.0 | 2.0 | 0.00 | 0.17 | 0.17 | 82 | 998.5 |
| 20260506234640 | 69 | 225 | 0.0 | 2.0 | 0.00 | 0.17 | 0.17 | 82 | 998.4 |
| 20260506233903 | 69 | 202 | 0.0 | 1.0 | 0.00 | 0.17 | 0.17 | 82 | 998.4 |
| 20260506233357 | 69 | 202 | 0.0 | 1.0 | 0.00 | 0.17 | 0.17 | 82 | 998.3 |
| 20260506232850 | 69 | 202 | 1.0 | 3.0 | 0.00 | 0.17 | 0.17 | 81 | 998.1 |
| 20260506232346 | 69 | 202 | 0.0 | 3.0 | 0.00 | 0.17 | 0.17 | 81 | 998.2 |
| 20260506231838 | 69 | 202 | 0.0 | 1.0 | 0.00 | 0.17 | 0.17 | 81 | 998.1 |
| 20260506231333 | 69 | 202 | 1.0 | 3.0 | 0.00 | 0.17 | 0.17 | 81 | 998.1 |
| 20260506230827 | 69 | 202 | 1.0 | 3.0 | 0.00 | 0.17 | 0.17 | 80 | 997.9 |
| 20260506230322 | 69 | 202 | 1.0 | 3.0 | 0.00 | 0.17 | 0.17 | 80 | 997.8 |
| 20260506225816 | 69 | 202 | 1.0 | 5.0 | 0.00 | 0.17 | 0.17 | 80 | 997.8 |
| 20260506225540 | 69 | 202 | 1.0 | 5.0 | 0.00 | 0.17 | 0.17 | 80 | 997.9 |
| 20260506224803 | 69 | 171 | 1.0 | 5.0 | 0.00 | 0.17 | 0.17 | 81 | 997.8 |
| 20260506224529 | 69 | 171 | 1.0 | 5.0 | 0.00 | 0.17 | 0.17 | 81 | 997.8 |
| 20260506223751 | 69 | 145 | 1.0 | 3.0 | 0.00 | 0.17 | 0.17 | 81 | 997.7 |
| 20260506223515 | 69 | 145 | 1.0 | 3.0 | 0.00 | 0.17 | 0.17 | 80 | 997.8 |
| 20260506222739 | 70 | 145 | 1.0 | 3.0 | 0.00 | 0.17 | 0.17 | 80 | 997.8 |
| 20260506222236 | 70 | 145 | 1.0 | 3.0 | 0.00 | 0.17 | 0.17 | 80 | 997.8 |
| 20260506221735 | 70 | 202 | 1.0 | 3.0 | 0.00 | 0.17 | 0.17 | 80 | 997.7 |
| 20260506221234 | 70 | 202 | 1.0 | 4.0 | 0.00 | 0.17 | 0.17 | 80 | 997.7 |
| 20260506220736 | 70 | 209 | 1.0 | 6.0 | 0.00 | 0.17 | 0.17 | 80 | 997.7 |
| 20260506220235 | 70 | 209 | 2.0 | 6.0 | 0.00 | 0.17 | 0.17 | 80 | 997.7 |
| 20260506215734 | 70 | 218 | 2.0 | 6.0 | 0.00 | 0.17 | 0.17 | 80 | 997.6 |
| 20260506215236 | 70 | 218 | 2.0 | 6.0 | 0.00 | 0.17 | 0.17 | 80 | 997.6 |
| 20260506214733 | 70 | 207 | 2.0 | 7.0 | 0.00 | 0.17 | 0.17 | 80 | 997.7 |
| 20260506214501 | 70 | 215 | 1.0 | 7.0 | 0.00 | 0.17 | 0.17 | 80 | 997.7 |
| 20260506213732 | 70 | 148 | 1.0 | 3.0 | 0.00 | 0.17 | 0.17 | 82 | 997.6 |
| 20260506213231 | 70 | 148 | 1.0 | 3.0 | 0.00 | 0.17 | 0.17 | 81 | 997.7 |
| 20260506212730 | 70 | 190 | 1.0 | 3.0 | 0.00 | 0.17 | 0.17 | 82 | 997.5 |
| 20260506212229 | 70 | 190 | 2.0 | 5.0 | 0.00 | 0.17 | 0.17 | 81 | 997.5 |
| 20260506211730 | 70 | 164 | 2.0 | 5.0 | 0.00 | 0.17 | 0.17 | 80 | 997.4 |
| 20260506211230 | 70 | 211 | 2.0 | 5.0 | 0.00 | 0.17 | 0.17 | 80 | 997.5 |
| 20260506210731 | 70 | 161 | 2.0 | 6.0 | 0.00 | 0.17 | 0.17 | 81 | 997.3 |
| 20260506210231 | 70 | 202 | 2.0 | 6.0 | 0.00 | 0.17 | 0.17 | 80 | 997.4 |
| 20260506205732 | 69 | 211 | 2.0 | 6.0 | 0.00 | 0.17 | 0.17 | 80 | 997.2 |
| 20260506205728 | 70 | 215 | 2.0 | 6.0 | 0.00 | 0.17 | 0.17 | 81 | 997.4 |
| 20260506204727 | 69 | 111 | 2.0 | 6.0 | 0.00 | 0.17 | 0.17 | 80 | 997.0 |
| 20260506204227 | 69 | 198 | 2.0 | 7.0 | 0.00 | 0.17 | 0.17 | 81 | 997.1 |
| 20260506204001 | 69 | 214 | 3.0 | 7.0 | 0.00 | 0.17 | 0.17 | 80 | 997.2 |
| 20260506203228 | 69 | 215 | 2.0 | 5.0 | 0.00 | 0.17 | 0.17 | 81 | 997.2 |
| 20260506202730 | 69 | 209 | 2.0 | 5.0 | 0.00 | 0.17 | 0.17 | 81 | 997.2 |
| 20260506202227 | 69 | 147 | 2.0 | 5.0 | 0.00 | 0.17 | 0.17 | 82 | 997.2 |
| 20260506201730 | 69 | 222 | 2.0 | 6.0 | 0.00 | 0.17 | 0.17 | 80 | 997.3 |
| 20260506201500 | 69 | 221 | 2.0 | 10.0 | 0.00 | 0.17 | 0.17 | 80 | 997.4 |
| 20260506200726 | 69 | 197 | 2.0 | 10.0 | 0.00 | 0.17 | 0.17 | 81 | 997.4 |
| 20260506200225 | 69 | 192 | 2.0 | 5.0 | 0.00 | 0.17 | 0.17 | 80 | 997.4 |
| 20260506195730 | 69 | 221 | 2.0 | 7.0 | 0.00 | 0.17 | 0.17 | 81 | 997.5 |
| 20260506195726 | 69 | 213 | 2.0 | 7.0 | 0.00 | 0.17 | 0.17 | 81 | 997.4 |